Location: Cartignies
(50.0929°N, 3.8447°E)
Time: 14:17:32
(UTC+00:00)

PSLV R/B - Pass Details

Date: 12 January 2026
Orbit: 559 x 588 km, 98.0° (Epoch: 16 February)

Event Time Altitude Azimuth Distance (km) Brightness Sun altitude
Rises 17:49:48 0° 151° (SSE) 2,799 6.8 -15.9°
Reaches altitude 10° 17:51:58 10° 146° (SSE) 1,908 5.9 -16.2°
Maximum altitude 17:56:00 52° 71° (ENE) 735 3.5 -16.8°
Drops below altitude 10° 18:00:04 10° 355° (N) 1,931 6.0 -17.5°
Sets 18:02:17 0° 350° (N) 2,837 6.9 -17.8°
